Oak Ridge, TN

6:37 AM EDT on October 20, 2017 (GMT -0400)
Oak Ridge

Weather History for KOQT - March, 2013

Change the Weather History Date:

Tuesday, March 5, 2013

  Actual Average (KTYS) Record (KTYS)
Temperature  
Mean Temperature 42 °F -  
Max Temperature 48 °F 59 °F 78 °F (1910)
Min Temperature 35 °F 37 °F 6 °F (1960)
Degree Days  
Heating Degree Days 23    
Moisture  
Dew Point 37 °F    
Average Humidity 88    
Maximum Humidity 96    
Minimum Humidity 67    
Precipitation  
Precipitation 1.47 in - - ()
Sea Level Pressure  
Sea Level Pressure 29.85 in    
Wind  
Wind Speed 3 mph (NW)    
Max Wind Speed 21 mph    
Max Gust Speed 40 mph    
Visibility 4 miles    
Events Rain    
Averages and records for this station are not official NWS values.
T = Trace of Precipitation, MM = Missing Value Source: NWS Daily Summary

Daily Weather History Graph

Daily Weather History Graph

Search for Another Location

Airport or City:

Trip Planner

Search our weather history database for the weather conditions in past years. The results will help you decide how hot, cold, wet, or windy it might be!

Date:

Astronomy

Mar. 05, 2013 Rise Set
Actual Time 7:01 AM EST 6:35 PM EST
Civil Twilight 6:35 AM EST 7:01 PM EST
Nautical Twilight 6:06 AM EST 7:31 PM EST
Astronomical Twilight 5:36 AM EST 8:00 PM EST
Moon 2:04 AM EST (3/5) 12:22 PM EST (3/5)
Length of Visible Light 12h 25m
Length of Day
11h 34m
Last Quarter, 41% of the Moon is Illuminated
Mar 5
Last Quarter
Mar 11
New
Mar 19
First Quarter
Mar 27
Full
Apr 3
Last Quarter

Hourly Weather History & Observations

Time (EST) Temp. Windchill Dew Point Humidity Pressure Visibility Wind Dir Wind Speed Gust Speed Precip Events Conditions
12:53 AM 36.0 °F - 27.0 °F 70% 30.05 in 10.0 mi Calm Calm - N/A   Scattered Clouds
1:53 AM 36.0 °F - 26.1 °F 67% 30.04 in 10.0 mi Calm Calm - N/A   Overcast
2:53 AM 37.0 °F - 27.0 °F 67% 30.02 in 10.0 mi Calm Calm - N/A   Overcast
3:53 AM 37.0 °F - 30.0 °F 76% 29.99 in 8.0 mi Calm Calm - 0.00 in Rain Light Rain
4:53 AM 37.0 °F - 32.0 °F 82% 29.96 in 10.0 mi Calm Calm - 0.00 in   Overcast
5:53 AM 37.0 °F 33.3 °F 33.1 °F 86% 29.98 in 5.0 mi East 4.6 mph - 0.04 in Rain Rain
6:53 AM 37.0 °F 32.4 °F 34.0 °F 89% 29.98 in 10.0 mi ENE 5.8 mph - 0.03 in   Overcast
7:53 AM 37.0 °F 32.4 °F 35.1 °F 93% 29.99 in 3.0 mi East 5.8 mph - 0.02 in Rain Heavy Rain
8:16 AM 37.4 °F 33.8 °F 35.6 °F 93% 29.97 in 2.5 mi North 4.6 mph - 0.03 in Rain Light Rain
8:33 AM 37.4 °F 33.8 °F 35.6 °F 93% 29.96 in 1.2 mi East 4.6 mph - 0.06 in Rain Heavy Rain
8:48 AM 37.4 °F 32.8 °F 35.6 °F 93% 29.94 in 3.0 mi ENE 5.8 mph - 0.13 in Rain Light Rain
8:53 AM 39.0 °F - 37.0 °F 93% 29.98 in 2.5 mi Calm Calm - 0.14 in Rain Rain
9:01 AM 39.2 °F - 37.4 °F 93% 29.95 in 2.5 mi Calm Calm - 0.01 in Rain Light Rain
9:19 AM 39.2 °F - 37.4 °F 93% 29.94 in 1.5 mi Calm Calm - 0.08 in Rain Rain
9:31 AM 39.2 °F - 37.4 °F 93% 29.93 in 2.5 mi Calm Calm - 0.11 in Rain Rain
9:43 AM 39.2 °F - 37.4 °F 93% 29.92 in 2.0 mi Calm Calm - 0.13 in Rain Light Rain
9:53 AM 39.0 °F - 37.9 °F 96% 29.95 in 4.0 mi Calm Calm - 0.14 in Rain Light Rain
10:14 AM 39.2 °F - 37.4 °F 93% 29.91 in 3.0 mi Calm Calm - 0.00 in Rain Light Rain
10:44 AM 39.2 °F - 37.4 °F 93% 29.89 in 2.5 mi Calm Calm - 0.01 in Rain Light Rain
10:53 AM 39.9 °F 37.8 °F 37.9 °F 93% 29.91 in 1.5 mi NE 3.5 mph - 0.02 in Rain Light Rain
11:46 AM 41.0 °F 39.0 °F 39.2 °F 93% 29.85 in 3.0 mi NNE 3.5 mph - 0.09 in Rain Light Rain
11:53 AM 41.0 °F 39.0 °F 39.0 °F 93% 29.87 in 1.8 mi NE 3.5 mph - 0.10 in Rain Heavy Rain
12:01 PM 41.0 °F - 39.2 °F 93% 29.84 in 3.0 mi Calm Calm - 0.03 in Rain Light Rain
12:13 PM 41.0 °F - 39.2 °F 93% 29.85 in 1.8 mi Calm Calm - 0.03 in Rain Rain
12:38 PM 41.0 °F - 39.2 °F 93% 29.84 in 1.5 mi Calm Calm - 0.20 in Rain Heavy Rain
12:53 PM 41.0 °F - 39.9 °F 96% 29.86 in 2.0 mi Calm Calm - 0.28 in Rain Heavy Rain
1:00 PM 41.0 °F - 39.2 °F 93% 29.81 in 2.0 mi Calm Calm - 0.03 in Rain Rain
1:24 PM 42.8 °F - 39.2 °F 87% 29.80 in 1.8 mi Calm Calm - 0.11 in Rain Heavy Rain
1:38 PM 41.0 °F 35.8 °F 39.2 °F 93% 29.71 in 2.0 mi ENE 8.1 mph - 0.17 in Rain Light Rain
1:53 PM 42.1 °F 40.2 °F 39.9 °F 92% 29.78 in 10.0 mi North 3.5 mph - 0.17 in   Overcast
2:44 PM 42.8 °F 41.1 °F 39.2 °F 87% 29.68 in 2.0 mi Variable 3.5 mph - 0.05 in Rain Rain
2:53 PM 43.0 °F - 41.0 °F 93% 29.70 in 3.0 mi Calm Calm - 0.06 in Rain Light Rain
3:04 PM 42.8 °F - 41.0 °F 93% 29.67 in 2.5 mi Calm Calm - 0.02 in Rain Rain
3:16 PM 42.8 °F - 41.0 °F 93% 29.65 in 1.5 mi Calm Calm - 0.07 in Rain Heavy Rain
3:26 PM 42.8 °F - 41.0 °F 93% 29.65 in 2.5 mi Calm Calm - 0.09 in Rain Light Rain
3:46 PM 44.6 °F 40.7 °F 41.0 °F 87% 29.71 in 1.2 mi Variable 6.9 mph 24.2 mph 0.14 in Rain Heavy Rain
3:53 PM 44.1 °F 40.8 °F 42.1 °F 93% 29.73 in 1.0 mi SW 5.8 mph - 0.21 in Rain Heavy Rain
4:29 PM 46.4 °F - 44.6 °F 93% 29.66 in 3.0 mi Calm Calm - 0.18 in Rain Light Rain
4:53 PM 46.9 °F - 44.1 °F 90% 29.65 in 10.0 mi Calm Calm - 0.20 in Rain Light Rain
5:45 PM 46.4 °F 44.3 °F 44.6 °F 93% 29.67 in 2.5 mi WSW 4.6 mph - 0.01 in Rain Heavy Rain
5:48 PM 46.4 °F 43.5 °F 44.6 °F 93% 29.68 in 1.8 mi West 5.8 mph - 0.02 in Rain Heavy Rain
5:53 PM 46.9 °F - 45.0 °F 93% 29.72 in 1.8 mi WSW 6.9 mph - 0.05 in Rain Rain
5:56 PM 48.2 °F - 44.6 °F 87% 29.70 in 3.0 mi West 12.7 mph 27.6 mph 0.00 in Rain Light Rain
6:53 PM 45.0 °F 36.9 °F 37.0 °F 74% 29.79 in 10.0 mi West 20.7 mph 40.3 mph 0.01 in   Overcast
7:53 PM 39.0 °F 31.4 °F 33.1 °F 79% 29.86 in 8.0 mi West 12.7 mph 33.4 mph 0.00 in Rain Light Rain
8:53 PM 37.0 °F 28.1 °F 30.0 °F 76% 29.91 in 10.0 mi West 15.0 mph 26.5 mph 0.00 in Rain Light Rain
9:53 PM 37.0 °F 31.0 °F 28.9 °F 73% 29.92 in 10.0 mi West 8.1 mph 18.4 mph 0.00 in   Overcast
10:53 PM 36.0 °F 27.5 °F 26.1 °F 67% 29.93 in 10.0 mi West 12.7 mph 21.9 mph 0.00 in   Overcast
11:53 PM 35.1 °F 27.9 °F 25.0 °F 67% 29.91 in 10.0 mi WSW 9.2 mph - 0.00 in   Overcast